Change the Weather History Date:

Wednesday, July 3, 2013

  Actual Average Record
Temperature  
Mean Temperature 82 °F 82 °F  
Max Temperature 90 °F 91 °F 100 °F (1998)
Min Temperature 73 °F 73 °F 64 °F (1937)
Degree Days  
Heating Degree Days 0 0  
Month to date heating degree days 0 0  
Since 1 June heating degree days 0 0  
Since 1 July heating degree days 0 0  
Cooling Degree Days 17 17  
Month to date cooling degree days 44 51  
Year to date cooling degree days 1425 1342  
Since 1 June cooling degree days 553 541  
Growing Degree Days 32 (Base 50)    
Moisture  
Dew Point 74 °F    
Average Humidity 85    
Maximum Humidity 100    
Minimum Humidity 70    
Precipitation  
Precipitation 0.75 in 0.22 in 4.10 in (1909)
Month to date precipitation 1.51 0.69  
Year to date precipitation 22.48 22.90  
Sea Level Pressure  
Sea Level Pressure 30.11 in    
Wind  
Wind Speed 6 mph (SE)    
Max Wind Speed 31 mph    
Max Gust Speed 39 mph    
Visibility 8 miles    
Events Rain , Thunderstorm    
T = Trace of Precipitation, MM = Missing Value Source: NWS Daily Summary

Daily Weather History Graph

Daily Weather History Graph

Search for Another Location

Airport or City:

Trip Planner

Search our weather history database for the weather conditions in past years. The results will help you decide how hot, cold, wet, or windy it might be!

Date:

Astronomy

Jul. 03, 2013 Rise Set
Actual Time 6:32 AM EDT 8:26 PM EDT
Civil Twilight 6:05 AM EDT 8:53 PM EDT
Nautical Twilight 5:33 AM EDT 9:25 PM EDT
Astronomical Twilight 4:58 AM EDT 9:59 PM EDT
Moon 2:59 AM EDT (7/3) 4:43 PM EDT (7/3)
Length of Visible Light 14h 47m
Length of Day
13h 54m
Waning Crescent, 18% of the Moon is Illuminated
Jul 3
Waning Crescent
Jul 8
New
Jul 15
First Quarter
Jul 22
Full
Jul 29
Last Quarter

Hourly Weather History & Observations

Time (EDT) Temp. Heat Index Dew Point Humidity Pressure Visibility Wind Dir Wind Speed Gust Speed Precip Events Conditions
12:53 AM 73.9 °F - 73.0 °F 97% 30.10 in 10.0 mi ESE 4.6 mph - N/A   Partly Cloudy
1:53 AM 73.9 °F - 73.0 °F 97% 30.10 in 10.0 mi Calm Calm - N/A   Scattered Clouds
2:53 AM 73.9 °F - 73.0 °F 97% 30.08 in 10.0 mi Calm Calm - N/A   Mostly Cloudy
3:53 AM 73.9 °F - 73.0 °F 97% 30.08 in 10.0 mi Calm Calm - N/A   Mostly Cloudy
4:53 AM 73.9 °F - 73.0 °F 97% 30.08 in 10.0 mi East 3.5 mph - N/A   Scattered Clouds
5:53 AM 75.0 °F - 73.9 °F 96% 30.09 in 10.0 mi SE 4.6 mph - N/A   Mostly Cloudy
6:53 AM 73.9 °F - 73.9 °F 100% 30.10 in 10.0 mi SE 3.5 mph - N/A   Mostly Cloudy
7:53 AM 75.9 °F - 75.0 °F 97% 30.12 in 10.0 mi SE 4.6 mph - N/A   Mostly Cloudy
8:53 AM 79.0 °F - 75.9 °F 90% 30.13 in 10.0 mi SE 5.8 mph - N/A   Mostly Cloudy
9:23 AM 80.6 °F 86.2 °F 75.2 °F 84% 30.13 in 10.0 mi SE 8.1 mph - N/A   Mostly Cloudy
9:53 AM 82.9 °F 90.8 °F 75.9 °F 79% 30.13 in 10.0 mi SE 8.1 mph 17.3 mph N/A   Scattered Clouds
10:53 AM 86.0 °F 95.1 °F 75.0 °F 70% 30.13 in 10.0 mi SSE 10.4 mph - N/A   Scattered Clouds
11:53 AM 88.0 °F 97.5 °F 75.0 °F 65% 30.12 in 10.0 mi ESE 12.7 mph - 0.00 in Rain Light Rain
12:53 PM 90.0 °F 99.0 °F 73.9 °F 59% 30.11 in 10.0 mi SSE 16.1 mph 20.7 mph 0.00 in   Mostly Cloudy
1:10 PM 80.6 °F 86.2 °F 75.2 °F 84% 30.12 in 8.0 mi SE 12.7 mph - 0.09 in Rain , Thunderstorm Light Thunderstorms and Rain
1:53 PM 80.1 °F 85.4 °F 75.9 °F 87% 30.12 in 8.0 mi South 8.1 mph - 0.09 in Rain , Thunderstorm Light Thunderstorms and Rain
2:07 PM 75.2 °F - 71.6 °F 89% 30.13 in 2.0 mi South 16.1 mph 39.1 mph 0.08 in Rain , Thunderstorm Thunderstorms and Rain
2:09 PM 75.2 °F - 71.6 °F 89% 30.13 in 0.5 mi SSE 15.0 mph 39.1 mph 0.14 in Rain , Thunderstorm Thunderstorms and Rain
2:13 PM 75.2 °F - 71.6 °F 89% 30.12 in 4.0 mi SE 9.2 mph 39.1 mph 0.23 in Rain , Thunderstorm Thunderstorms and Rain
2:23 PM 75.2 °F - 75.2 °F 100% 30.11 in 5.0 mi East 9.2 mph - 0.28 in Rain , Thunderstorm Thunderstorms and Rain
2:45 PM 78.8 °F - 77.0 °F 94% 30.10 in 10.0 mi ESE 6.9 mph - 0.29 in Rain Light Rain
2:53 PM 79.0 °F - 78.1 °F 97% 30.09 in 10.0 mi ESE 4.6 mph - 0.29 in Rain Light Rain
3:02 PM 78.8 °F - 77.0 °F 94% 30.10 in 2.0 mi SSE 9.2 mph - 0.01 in Rain , Thunderstorm Light Thunderstorms and Rain
3:12 PM 78.8 °F - 75.2 °F 89% 30.11 in - ESE 15.0 mph - 0.09 in Rain , Thunderstorm Light Thunderstorms and Rain
3:20 PM 77.0 °F - 73.4 °F 89% 30.10 in 2.0 mi ESE 9.2 mph 20.7 mph 0.09 in Rain , Thunderstorm Light Thunderstorms and Rain
3:35 PM 73.4 °F - 71.6 °F 94% 30.10 in 6.0 mi East 8.1 mph - 0.14 in Rain , Thunderstorm Thunderstorms and Rain
3:53 PM 75.9 °F - 73.9 °F 94% 30.09 in 10.0 mi East 10.4 mph - 0.15 in Rain , Thunderstorm Thunderstorms and Rain
4:22 PM 78.8 °F - 75.2 °F 89% 30.09 in 10.0 mi East 5.8 mph - 0.01 in   Mostly Cloudy
4:53 PM 81.0 °F 87.3 °F 75.9 °F 85% 30.07 in 10.0 mi East 5.8 mph - 0.01 in   Mostly Cloudy
5:53 PM 82.0 °F 90.2 °F 77.0 °F 85% 30.08 in 10.0 mi SE 5.8 mph - N/A   Overcast
6:18 PM 80.6 °F 87.1 °F 77.0 °F 89% 30.09 in 10.0 mi East 6.9 mph - 0.00 in Rain Light Rain
6:53 PM 81.0 °F 87.3 °F 75.9 °F 85% 30.09 in 10.0 mi SE 5.8 mph - 0.00 in   Overcast
7:53 PM 80.1 °F 85.1 °F 75.0 °F 85% 30.10 in 10.0 mi ESE 5.8 mph - N/A   Overcast
8:21 PM 78.8 °F - 71.6 °F 78% 30.13 in 10.0 mi SSW 12.7 mph 21.9 mph N/A   Overcast
8:29 PM 75.2 °F - 71.6 °F 89% 30.13 in 5.0 mi South 17.3 mph 26.5 mph 0.00 in Rain Light Rain
8:40 PM 73.4 °F - 71.6 °F 94% 30.14 in 3.0 mi SSE 9.2 mph - 0.11 in Rain Rain
8:42 PM 73.4 °F - 71.6 °F 94% 30.14 in 2.5 mi SSE 13.8 mph 18.4 mph 0.12 in Rain Rain
8:53 PM 73.0 °F - 71.1 °F 93% 30.13 in 2.5 mi SE 5.8 mph 17.3 mph 0.21 in Rain Heavy Rain
9:15 PM 73.4 °F - 71.6 °F 94% 30.13 in 10.0 mi East 4.6 mph - 0.00 in   Overcast
9:53 PM 73.9 °F - 73.0 °F 97% 30.14 in 10.0 mi SSE 3.5 mph - 0.00 in   Mostly Cloudy
10:53 PM 73.9 °F - 73.0 °F 97% 30.15 in 10.0 mi Calm Calm - N/A   Mostly Cloudy
11:53 PM 73.9 °F - 73.0 °F 97% 30.15 in 10.0 mi ESE 3.5 mph - N/A   Scattered Clouds